Showing default

CHUBUSAT 3, 41339

Orbit data source: Space-Track

CHUBUSAT 3, 41339 is a Japanese payload satellite in LEO that was launched on Wed, 17 Feb 2016 UTC via an H-IIA 202 launch vehicle from the Tanegashima Space Center (TNSTA). Payload-class satellites include a variety of spacecraft equipped with specific instruments for various scientific and technological missions. These include communications satellites like Starlink; space stations such as the ISS; scientific satellites like the Hubble; Earth observation satellites from companies like Planet Labs, Umbra, and HawkEye 360; GPS; miniature CubeSats for education and research; and military/defense satellites.

Loading next visibility...
Identifier
41339, 2016-012C
Orbit
LEO
Last TLE update
8 hours ago
Origin
Manufacturer
NAG/MHIME
Mission
Non-operational Amateur Imaging
Bus & Motor
Unknown
Mass
52 kg wet, 52 kg dry
Launch date (UTC)
2016-02-17 (9 years ago)
Launch vehicle
H-IIA 202
Launch site
Tanegashima Space Center (TNSTA)
Object type
Payload
Rocket body
Debris
Shape & HBR
Box, 0.6 m
Radar Cross Section
0.480 m², Medium (>0.1 m² and < 1m²)

Expand to show TLE details & history

TLE from 8 hours ago
0 CHUBUSAT 3
1 41339U 16012C   25185.89072384  .00003588  00000-0  18502-3 0  9995
2 41339  31.0063  74.7898 0009805 139.6308 220.5060 15.14422355515435
Epoch: 2025-07-04T21:22Z
TLE epoch observation values (Epoch: 2025-07-04T21:22:38.539Z)
Latitude
-0.00004°
Longitude
-169.00747°
Altitude
526.386 km
Speed
7.6 km/s
True Right ascension
04h 59m 09s
True Declination
0° 00' 00"
Sunlit
Object was in daylight at epoch
Visualization orbit readout
Latitude
28.69862°
Longitude
-106.28755°
Altitude
520.067 km
Speed
7.609 km/s
Apparent Right ascension
07h 31m 59s
Apparent Declination
-4° 34' 11"
Sunlit
Object is in daylight
Visualization observer readout
Local Sidereal Time
17:28:34
Azimuth
313.67° NW
Elevation
-45.03°
Doppler factor
1
Orbital elements
Apogee altitude
533.35 km
Perigee altitude
519.81 km
Semi-major axis
6,904.717 km
Eccentricity
0.00098
Inclination
31.0063°
RAAN
74.7898°
Arg. of periapsis
139.6308°
True anomaly
Unknown
Mean anomaly
220.506°
Eccentric anomaly
Unknown
Mean motion
3.7829 °/min
Orbital period
95.17 mins
BSTAR
0.00018502
Loading maneuver chart data...
Loading SW <> Apogee altitude chart data...
Loading historical data...
Loading historical data...
Loading historical data...
Loading historical data...
Loading historical data...
Loading historical data...
Loading historical data...

CHUBUSAT 3 Visibility forecast

Observer location: undefined°, undefined°

Span
Click to sort rows by Start time (UTC) header in descending order
Start Az.
Max El. time (UTC)
Max El. Az.
Max El.
End time (UTC)
End Az.
5 mins2025-07-05 21:24:09.411Z209.812° SW2025-07-05 21:26:09.411Z175.81° S18.131°2025-07-05 21:29:09.411Z125.467° SE
4 mins2025-07-05 23:05:09.411Z212.552° SW2025-07-05 23:06:09.411Z192.247° SSW20.004°2025-07-05 23:09:09.411Z137.766° SSE
|